weather.gov     
National Weather Service

Regional Weather Roundup
NWS Homepage
This page is being discontinued on March 12, 2014.
The same data is available at this site. Please update your bookmarks.
Thank you, and we apologize for the inconvenience.
Please send an email to SR-SRH.Webmaster@noaa.gov with any concerns.


Current Version
Previous Version:    01  02  03  04  05  06  07  08  09  10  11  12  13  14  15  16  17  18  19  20  21  22  23  24  25  26  27  28  
[Printable]
042
ASUS42 KCAE 280910
RWRCAE
REGIONAL WEATHER ROUNDUP
NATIONAL WEATHER SERVICE COLUMBIA SC
400 AM EST WED JAN 28 2015

NOTE: "FAIR" INDICATES FEW OR NO CLOUDS BELOW 12,000 FEET WITH NO
SIGNIFICANT WEATHER AND/OR OBSTRUCTIONS TO VISIBILITY.

NOT ALL STATIONS ARE QUALITY CONTROLLED BY THE NATIONAL
WEATHER SERVICE. USE DATA WITH CAUTION...ESPECIALLY
DEWPOINT OBSERVATIONS.

SCZ001>056-GAZ040-063>065-077-281000-
...UPSTATE SOUTH CAROLINA...

CITY           SKY/WX    TMP DP  RH WIND       PRES   REMARKS
ANDERSON       CLEAR     26  23  88 CALM      30.10R
LIBERTY        SUNNY     22  19  88 MISG      30.08R
SPARTANBURG    CLEAR     32  19  59 NW5       30.09S WCI  27
CLEMSON        CLEAR     31  25  78 CALM      30.10R
GREENVILLE     CLEAR     32  16  51 N12G22    30.09R WCI  23
GREENWOOD      FAIR      33  16  49 N6        30.11R WCI  28
GREER          CLEAR     31  15  52 N5        30.07S WCI  26
ROCK HILL      CLEAR     23  17  78 CALM      30.09R
CHESTER        SUNNY     30  19  64 CALM      30.10R
LAURENS        SUNNY     28  27  93 N3        30.10R


...CENTRAL SOUTH CAROLINA...

CITY           SKY/WX    TMP DP  RH WIND       PRES   REMARKS
COLUMBIA APT   CLEAR     35  22  58 N6        30.10R WCI  30
COLUMBIA OWENS CLEAR     33  20  58 CALM      30.11R
DARLINGTON     CLEAR     32  18  55 N9        30.10R WCI  24
FLORENCE       CLEAR     33  17  51 N12       30.09R WCI  24
MCENTIRE ANGB  CLEAR     29  20  71 W5        30.10R WCI  23
ORANGEBURG     CLEAR     32  25  75 NW3       30.09R
SUMTER SHAW    CLEAR     33  19  57 N8        30.08R WCI  26
NEWBERRY       SUNNY     30  23  74 N7        30.13R WCI  23
AIKEN          FAIR      28  27  93 W3        30.12S
BARNWELL       FAIR      32  27  80 W3        30.11R
MANNING        FAIR      32  28  86 CALM      30.09R
CAMDEN         FAIR      30  19  64 N6        30.10R WCI  24
LANCASTER      SUNNY     30  18  59 NW3       30.09R
WINNSBORO      SUNNY     30  21  69 N3        30.08R


...EASTERN AND COASTAL SOUTH CAROLINA...

CITY           SKY/WX    TMP DP  RH WIND       PRES   REMARKS
MYRTLE BEACH   CLEAR     34  18  51 NW7       30.09R WCI  28
N MYRTLE BCH   CLEAR     33  17  51 N5        30.06R WCI  29
CONWAY         FAIR      32  21  64 CALM      30.08R
MARION         FAIR      32  14  47 N6        30.08R WCI  26
HARTSVILLE     FAIR      32  14  47 N3        30.10R
FLORENCE       CLEAR     33  17  51 N12       30.09R WCI  24
DARLINGTON     CLEAR     32  18  55 N9        30.10R WCI  24
CHARLESTON APT CLEAR     33  26  75 NW6       30.09R WCI  28
MOUNT PLEASANT LGT RAIN N/A N/A N/A NW6       30.07R
WALTERBORO     SUNNY     32  28  86 NW3       30.11R
BEAUFORT       CLEAR     38  27  64 N9        30.10R WCI  31


...EASTERN GEORGIA...

CITY           SKY/WX    TMP DP  RH WIND       PRES   REMARKS
AUGUSTA BUSH F CLEAR     26  24  92 W3        30.12R
AUGUSTA DANIEL CLEAR     35  27  72 NW3       30.11R
THOMSON        CLEAR     28  28  99 CALM      30.16R
WASHINGTON     FAIR      32  32 100 CALM      30.11R
CLAXTON        FAIR      32  32 100 W3        30.12R
SYLVANIA       SUNNY     32  31  96 CALM      30.11S
STATESBORO     CLEAR     31  31 100 CALM      30.11R
SAVANNAH       CLEAR     36  28  73 NW5       30.11R WCI  32


...SOUTHERN NORTH CAROLINA...

CITY           SKY/WX    TMP DP  RH WIND       PRES   REMARKS
CHARLOTTE      CLEAR     27  13  55 N5        30.09R WCI  22
MONROE         CLEAR     29  16  58 N6        30.08R WCI  23
WADESBORO      SUNNY     31   8  38 N7        30.10R WCI  24
ROCKINGHAM       N/A     30   9  41 N7        30.08R WCI  23
RUTHERFORDTON  CLEAR     32   9  38 N8        30.09R WCI  24
ASHEVILLE      CLEAR     24  15  68 N18G36    30.06R WCI  10

$$




U.S. Dept. of Commerce
NOAA National Weather Service
1325 East West Highway
Silver Spring, MD 20910
E-mail: w-nws.webmaster@noaa.gov
Page last modified: May 16, 2007
NATIONAL WEATHER SERVICE: for Safety, for Work, for Fun - FOR LIFE